| time (UTC) | temp F | wind direction | speed MPH | gust MPH | rain 1hr in | rain 24hr in | rain mn in | humidity % | barometer mb |
| 20260905230005 | 55 | 215 | 1.0 | 2.0 | 0.00 | 0.00 | 0.00 | 89 | 1025.6 |
| 20260905224006 | 55 | 215 | 1.0 | 2.0 | 0.00 | 0.00 | 0.00 | 88 | 1025.4 |
| 20260905223006 | 55 | 215 | 1.0 | 3.0 | 0.00 | 0.00 | 0.00 | 87 | 1025.4 |
| 20260905222005 | 55 | 215 | 1.0 | 3.0 | 0.00 | 0.00 | 0.00 | 86 | 1025.4 |
| 20260905221005 | 56 | 215 | 0.0 | 1.0 | 0.00 | 0.00 | 0.00 | 86 | 1025.4 |
| 20260905220005 | 56 | 215 | 0.0 | 1.0 | 0.00 | 0.00 | 0.00 | 85 | 1025.5 |
| 20260905215005 | 56 | 215 | 0.0 | 2.0 | 0.00 | 0.00 | 0.00 | 85 | 1025.6 |
| 20260905214005 | 57 | 215 | 0.0 | 2.0 | 0.00 | 0.00 | 0.00 | 86 | 1025.6 |
| 20260905213005 | 57 | 215 | 0.0 | 2.0 | 0.00 | 0.00 | 0.00 | 86 | 1025.6 |
| 20260905212006 | 57 | 215 | 1.0 | 2.0 | 0.00 | 0.00 | 0.00 | 85 | 1025.6 |
| 20260905211005 | 57 | 215 | 0.0 | 0.0 | 0.00 | 0.00 | 0.00 | 84 | 1025.5 |
| 20260905210005 | 57 | 215 | 0.0 | 0.0 | 0.00 | 0.00 | 0.00 | 84 | 1025.4 |
| 20260905205005 | 57 | 215 | 0.0 | 0.0 | 0.00 | 0.00 | 0.00 | 84 | 1025.6 |
| 20260905204005 | 57 | 215 | 0.0 | 1.0 | 0.00 | 0.00 | 0.00 | 84 | 1025.8 |
| 20260905203005 | 57 | 215 | 0.0 | 0.0 | 0.00 | 0.00 | 0.00 | 82 | 1026.0 |
| 20260905202006 | 57 | 215 | 0.0 | 1.0 | 0.00 | 0.00 | 0.00 | 82 | 1026.0 |
| 20260905201005 | 58 | 215 | 0.0 | 2.0 | 0.00 | 0.00 | 0.00 | 81 | 1025.9 |
| 20260905200005 | 58 | 215 | 0.0 | 2.0 | 0.00 | 0.00 | 0.00 | 80 | 1025.8 |
| 20260905195005 | 58 | 215 | 0.0 | 2.0 | 0.00 | 0.00 | 0.00 | 80 | 1025.7 |
| 20260905194005 | 59 | 215 | 0.0 | 1.0 | 0.00 | 0.00 | 0.00 | 78 | 1025.7 |
| 20260905193005 | 59 | 215 | 0.0 | 1.0 | 0.00 | 0.00 | 0.00 | 77 | 1025.5 |
| 20260905192005 | 60 | 215 | 0.0 | 1.0 | 0.00 | 0.00 | 0.00 | 76 | 1025.3 |
| 20260905185005 | 61 | 215 | 0.0 | 2.0 | 0.00 | 0.00 | 0.00 | 73 | 1025.2 |
| 20260905184006 | 62 | 215 | 0.0 | 1.0 | 0.00 | 0.00 | 0.00 | 72 | 1025.0 |
| 20260905183005 | 63 | 215 | 0.0 | 2.0 | 0.00 | 0.00 | 0.00 | 70 | 1025.1 |
| 20260905181005 | 64 | 210 | 1.0 | 7.0 | 0.00 | 0.00 | 0.00 | 67 | 1025.2 |
| 20260905175005 | 65 | 318 | 1.0 | 6.0 | 0.00 | 0.00 | 0.00 | 66 | 1025.3 |
| 20260905174005 | 65 | 236 | 2.0 | 7.0 | 0.00 | 0.00 | 0.00 | 65 | 1025.3 |
| 20260905173005 | 66 | 221 | 2.0 | 9.0 | 0.00 | 0.00 | 0.00 | 64 | 1025.3 |
| 20260905172005 | 67 | 292 | 2.0 | 9.0 | 0.00 | 0.00 | 0.00 | 63 | 1025.3 |
| 20260905170005 | 68 | 221 | 2.0 | 12.0 | 0.00 | 0.00 | 0.00 | 60 | 1025.2 |
| 20260905165005 | 69 | 226 | 3.0 | 9.0 | 0.00 | 0.00 | 0.00 | 60 | 1025.2 |
| 20260905164005 | 69 | 349 | 3.0 | 9.0 | 0.00 | 0.00 | 0.00 | 60 | 1025.1 |
| 20260905163006 | 70 | 260 | 3.0 | 7.0 | 0.00 | 0.00 | 0.00 | 58 | 1025.2 |
| 20260905162005 | 70 | 208 | 3.0 | 10.0 | 0.00 | 0.00 | 0.00 | 59 | 1025.1 |
| 20260905161005 | 70 | 246 | 3.0 | 8.0 | 0.00 | 0.00 | 0.00 | 59 | 1025.2 |
| 20260905160005 | 70 | 251 | 2.0 | 8.0 | 0.00 | 0.00 | 0.00 | 60 | 1025.2 |
| 20260905155005 | 70 | 224 | 2.0 | 9.0 | 0.00 | 0.00 | 0.00 | 60 | 1025.5 |
| 20260905154005 | 70 | 222 | 3.0 | 12.0 | 0.00 | 0.00 | 0.00 | 59 | 1025.5 |
| 20260905153005 | 70 | 245 | 3.0 | 12.0 | 0.00 | 0.00 | 0.00 | 59 | 1025.6 |
| 20260905152005 | 70 | 193 | 2.0 | 12.0 | 0.00 | 0.00 | 0.00 | 59 | 1025.8 |
| 20260905151005 | 70 | 190 | 4.0 | 12.0 | 0.00 | 0.00 | 0.00 | 59 | 1025.7 |
| 20260905150005 | 70 | 234 | 3.0 | 12.0 | 0.00 | 0.00 | 0.00 | 58 | 1025.7 |
| 20260905145005 | 70 | 189 | 3.0 | 10.0 | 0.00 | 0.00 | 0.00 | 58 | 1025.6 |
| 20260905144005 | 70 | 245 | 3.0 | 12.0 | 0.00 | 0.00 | 0.00 | 58 | 1025.7 |
| 20260905143005 | 70 | 156 | 3.0 | 9.0 | 0.00 | 0.00 | 0.00 | 59 | 1025.5 |
| 20260905140005 | 70 | 198 | 3.0 | 12.0 | 0.00 | 0.00 | 0.00 | 57 | 1025.8 |
| 20260905134005 | 70 | 229 | 3.0 | 12.0 | 0.00 | 0.00 | 0.00 | 58 | 1025.6 |
| 20260905133005 | 70 | 209 | 5.0 | 12.0 | 0.00 | 0.00 | 0.00 | 57 | 1025.5 |
| 20260905132005 | 71 | 202 | 3.0 | 12.0 | 0.00 | 0.00 | 0.00 | 56 | 1025.5 |
| 20260905131004 | 71 | 190 | 2.0 | 9.0 | 0.00 | 0.00 | 0.00 | 57 | 1025.5 |
| 20260905130004 | 72 | 212 | 2.0 | 10.0 | 0.00 | 0.00 | 0.00 | 54 | 1025.4 |
| 20260905125005 | 71 | 307 | 4.0 | 9.0 | 0.00 | 0.00 | 0.00 | 60 | 1025.4 |
| 20260905124005 | 71 | 197 | 2.0 | 8.0 | 0.00 | 0.00 | 0.00 | 54 | 1025.4 |
| 20260905123004 | 71 | 271 | 3.0 | 8.0 | 0.00 | 0.00 | 0.00 | 55 | 1025.3 |
| 20260905122004 | 72 | 259 | 2.0 | 6.0 | 0.00 | 0.00 | 0.00 | 54 | 1025.4 |
| 20260905120004 | 71 | 276 | 4.0 | 9.0 | 0.00 | 0.00 | 0.00 | 55 | 1025.2 |
| 20260905115004 | 70 | 294 | 5.0 | 8.0 | 0.00 | 0.00 | 0.00 | 58 | 1025.3 |
| 20260905114005 | 70 | 315 | 3.0 | 9.0 | 0.00 | 0.00 | 0.00 | 56 | 1025.1 |
| 20260905113004 | 69 | 309 | 3.0 | 7.0 | 0.00 | 0.00 | 0.00 | 59 | 1025.3 |
| 20260905112004 | 68 | 284 | 4.0 | 10.0 | 0.00 | 0.00 | 0.00 | 59 | 1025.2 |
| 20260905111004 | 68 | 309 | 3.0 | 9.0 | 0.00 | 0.00 | 0.00 | 60 | 1025.2 |
| 20260905110004 | 67 | 292 | 4.0 | 12.0 | 0.00 | 0.00 | 0.00 | 62 | 1025.2 |
| 20260905105004 | 66 | 312 | 3.0 | 9.0 | 0.00 | 0.00 | 0.00 | 65 | 1025.2 |
| 20260905104004 | 66 | 348 | 3.0 | 10.0 | 0.00 | 0.00 | 0.00 | 66 | 1025.2 |
| 20260905103004 | 66 | 320 | 5.0 | 10.0 | 0.00 | 0.00 | 0.00 | 66 | 1025.3 |
| 20260905102004 | 65 | 324 | 6.0 | 12.0 | 0.00 | 0.00 | 0.00 | 67 | 1025.2 |
| 20260905101004 | 65 | 310 | 3.0 | 8.0 | 0.00 | 0.00 | 0.00 | 68 | 1025.2 |
| 20260905100005 | 65 | 315 | 3.0 | 7.0 | 0.00 | 0.00 | 0.00 | 68 | 1025.1 |
| 20260905094004 | 64 | 304 | 2.0 | 8.0 | 0.00 | 0.00 | 0.00 | 68 | 1025.1 |
| 20260905093004 | 64 | 307 | 4.0 | 8.0 | 0.00 | 0.00 | 0.00 | 68 | 1025.0 |
| 20260905092004 | 63 | 285 | 4.0 | 10.0 | 0.00 | 0.00 | 0.00 | 71 | 1025.1 |
| 20260905091004 | 63 | 325 | 5.0 | 8.0 | 0.00 | 0.00 | 0.00 | 72 | 1024.8 |
| 20260905090004 | 62 | 315 | 4.0 | 9.0 | 0.00 | 0.00 | 0.00 | 73 | 1024.7 |
| 20260905085004 | 62 | 315 | 2.0 | 9.0 | 0.00 | 0.00 | 0.00 | 74 | 1024.9 |
| 20260905083004 | 61 | 316 | 2.0 | 10.0 | 0.00 | 0.03 | 0.00 | 77 | 1024.6 |
| 20260905082005 | 60 | 290 | 3.0 | 10.0 | 0.00 | 0.04 | 0.00 | 79 | 1024.5 |
| 20260905081004 | 60 | 329 | 3.0 | 9.0 | 0.00 | 0.04 | 0.00 | 81 | 1024.5 |
| 20260905075005 | 58 | 349 | 2.0 | 7.0 | 0.00 | 0.04 | 0.00 | 86 | 1024.3 |
| 20260905073004 | 58 | 309 | 2.0 | 8.0 | 0.00 | 0.04 | 0.00 | 91 | 1024.0 |
| 20260905072004 | 57 | 297 | 1.0 | 3.0 | 0.00 | 0.04 | 0.00 | 91 | 1024.0 |
| 20260905071004 | 57 | 303 | 2.0 | 3.0 | 0.00 | 0.04 | 0.00 | 92 | 1024.0 |
| 20260905070004 | 56 | 293 | 1.0 | 3.0 | 0.00 | 0.04 | 0.00 | 91 | 1023.9 |
| 20260905065004 | 56 | 297 | 2.0 | 3.0 | 0.00 | 0.04 | 0.00 | 91 | 1023.8 |
| 20260905064004 | 56 | 284 | 2.0 | 3.0 | 0.00 | 0.04 | 0.00 | 91 | 1023.8 |
| 20260905062006 | 56 | 253 | 1.0 | 3.0 | 0.00 | 0.04 | 0.00 | 90 | 1023.7 |
| 20260905061006 | 56 | 304 | 2.0 | 3.0 | 0.00 | 0.04 | 0.00 | 90 | 1023.4 |
| 20260905060006 | 56 | 299 | 2.0 | 3.0 | 0.00 | 0.04 | 0.00 | 90 | 1023.5 |
| 20260905055006 | 56 | 303 | 2.0 | 3.0 | 0.00 | 0.04 | 0.00 | 89 | 1023.4 |
| 20260905054005 | 56 | 293 | 2.0 | 3.0 | 0.00 | 0.04 | 0.00 | 89 | 1023.3 |
| 20260905053006 | 56 | 288 | 2.0 | 3.0 | 0.00 | 0.04 | 0.00 | 89 | 1023.2 |
| 20260905052006 | 56 | 299 | 3.0 | 3.0 | 0.00 | 0.04 | 0.00 | 89 | 1023.1 |
| 20260905051006 | 57 | 300 | 3.0 | 5.0 | 0.00 | 0.04 | 0.00 | 89 | 1023.0 |
| 20260905050006 | 56 | 296 | 3.0 | 6.0 | 0.00 | 0.04 | 0.00 | 89 | 1022.9 |
| 20260905045007 | 57 | 297 | 3.0 | 5.0 | 0.00 | 0.04 | 0.00 | 89 | 1022.8 |
| 20260905041006 | 56 | 293 | 3.0 | 7.0 | 0.00 | 0.04 | 0.00 | 89 | 1022.5 |
| 20260905040006 | 56 | 299 | 3.0 | 5.0 | 0.00 | 0.04 | 0.00 | 89 | 1022.5 |
| 20260905034006 | 57 | 298 | 3.0 | 5.0 | 0.00 | 0.04 | 0.00 | 89 | 1022.2 |
| 20260905033004 | 56 | 297 | 3.0 | 5.0 | 0.00 | 0.04 | 0.00 | 90 | 1022.1 |
| 20260905032006 | 56 | 302 | 2.0 | 6.0 | 0.00 | 0.04 | 0.00 | 90 | 1022.0 |
| 20260905031006 | 56 | 303 | 3.0 | 6.0 | 0.00 | 0.04 | 0.00 | 90 | 1022.0 |
| 20260905030006 | 56 | 301 | 2.0 | 3.0 | 0.00 | 0.05 | 0.00 | 90 | 1021.7 |
| 20260905025006 | 56 | 303 | 2.0 | 3.0 | 0.00 | 0.05 | 0.00 | 89 | 1021.6 |
| 20260905024005 | 56 | 305 | 2.0 | 3.0 | 0.00 | 0.06 | 0.00 | 89 | 1021.7 |
| 20260905023006 | 56 | 306 | 2.0 | 3.0 | 0.00 | 0.06 | 0.00 | 89 | 1021.6 |
| 20260905022006 | 56 | 309 | 2.0 | 5.0 | 0.00 | 0.06 | 0.00 | 89 | 1021.4 |
| 20260905021006 | 56 | 302 | 3.0 | 5.0 | 0.00 | 0.06 | 0.00 | 88 | 1021.2 |
| 20260905020006 | 56 | 306 | 3.0 | 3.0 | 0.00 | 0.06 | 0.00 | 88 | 1021.2 |
| 20260905015007 | 56 | 297 | 2.0 | 7.0 | 0.00 | 0.06 | 0.00 | 88 | 1021.3 |
| 20260905014006 | 56 | 302 | 3.0 | 7.0 | 0.00 | 0.06 | 0.00 | 88 | 1021.3 |
| 20260905013006 | 57 | 297 | 2.0 | 5.0 | 0.00 | 0.06 | 0.00 | 88 | 1021.1 |
| 20260905012006 | 57 | 305 | 3.0 | 5.0 | 0.00 | 0.06 | 0.00 | 87 | 1021.1 |
| 20260905011006 | 57 | 297 | 2.0 | 6.0 | 0.00 | 0.06 | 0.00 | 87 | 1021.1 |
| 20260905010005 | 57 | 304 | 2.0 | 7.0 | 0.00 | 0.06 | 0.00 | 87 | 1021.1 |
| 20260905004006 | 57 | 300 | 3.0 | 7.0 | 0.00 | 0.06 | 0.00 | 87 | 1021.0 |
| 20260905003007 | 57 | 302 | 3.0 | 5.0 | 0.00 | 0.06 | 0.00 | 87 | 1021.1 |
| 20260905002006 | 57 | 299 | 3.0 | 6.0 | 0.00 | 0.06 | 0.00 | 86 | 1021.1 |
| 20260905001006 | 57 | 316 | 3.0 | 7.0 | 0.00 | 0.06 | 0.00 | 86 | 1021.0 |
| 20260905000006 | 57 | 301 | 3.0 | 6.0 | 0.00 | 0.06 | 0.00 | 86 | 1020.9 |
| 20260904235005 | 57 | 298 | 2.0 | 8.0 | 0.00 | 0.06 | 0.00 | 86 | 1020.9 |
| 20260904234005 | 57 | 295 | 3.0 | 7.0 | 0.00 | 0.06 | 0.00 | 85 | 1020.8 |
| 20260904233005 | 57 | 306 | 3.0 | 7.0 | 0.00 | 0.06 | 0.00 | 85 | 1020.7 |
| 20260904232005 | 57 | 311 | 3.0 | 7.0 | 0.00 | 0.06 | 0.00 | 85 | 1020.7 |
| 20260904231005 | 57 | 309 | 2.0 | 7.0 | 0.00 | 0.06 | 0.00 | 85 | 1020.7 |